Location: Göttingen
(51.5413°N, 9.9158°E)
Time: 17:34:41
(UTC+02:00)

BEESAT - Pass Details

Date: 30 June 2022
Orbit: 700 x 706 km, 98.6° (Epoch: 13 August)

Event Time Altitude Azimuth Distance (km) Brightness Sun altitude
Rises 23:07:28 0° 7° (N) 3,107 ? -9.5°
Reaches altitude 10° 23:09:59 10° 356° (N) 2,185 ? -9.7°
Maximum altitude 23:13:59 27° 299° (WNW) 1,343 ? -10.1°
Drops below altitude 10° 23:17:57 10° 243° (WSW) 2,176 ? -10.4°
Sets 23:20:28 0° 231° (SW) 3,091 ? -10.6°
